EN

Hourly Weather Acapetagua

Today, 2 December, Wednesday

Time Temperature Precipitation Wind Pressure Humidity
00:00 +9°C° 0 mm 2 mps 545 mmHg 78%
01:00 +9°C° 0 mm 1 mps 545 mmHg 77%
02:00 +9°C° 0 mm 1 mps 545 mmHg 76%
03:00 +9°C° 0 mm 1 mps 545 mmHg 76%
04:00 +9°C° 0 mm 1 mps 545 mmHg 75%
05:00 +9°C° 0 mm 1 mps 545 mmHg 74%
06:00 +10°C° 0 mm 1 mps 546 mmHg 70%
07:00 +11°C° 0 mm 1 mps 547 mmHg 65%
08:00 +12°C° 0 mm 1 mps 548 mmHg 61%
09:00 +14°C° 0 mm 1 mps 549 mmHg 54%
10:00 +16°C° 0 mm 1 mps 549 mmHg 48%
11:00 +18°C° 0 mm 1 mps 550 mmHg 42%
12:00 +18°C° 0.1 mm 1 mps 549 mmHg 43%
13:00 +17°C° 0.1 mm 2 mps 549 mmHg 43%
14:00 +17°C° 0.1 mm 2 mps 548 mmHg 44%
15:00 +16°C° 0.1 mm 2 mps 547 mmHg 51%
16:00 +14°C° 0.1 mm 2 mps 547 mmHg 58%
17:00 +13°C° 0.1 mm 2 mps 546 mmHg 65%
18:00 +12°C° 0.1 mm 1 mps 546 mmHg 68%
19:00 +12°C° 0.1 mm 1 mps 546 mmHg 70%
20:00 +11°C° 0.1 mm 1 mps 547 mmHg 73%
21:00 +11°C° 0 mm 1 mps 546 mmHg 73%
22:00 +10°C° 0 mm 1 mps 546 mmHg 74%
23:00 +10°C° 0 mm 1 mps 546 mmHg 74%

Tomorrow, 3 December, Thursday

Time Temperature Precipitation Wind Pressure Humidity
00:00 +10°C° 0 mm 1 mps 546 mmHg 74%
01:00 +10°C° 0 mm 1 mps 545 mmHg 74%
02:00 +9°C° 0 mm 1 mps 545 mmHg 74%
03:00 +9°C° 0 mm 1 mps 545 mmHg 71%
04:00 +9°C° 0 mm 1 mps 545 mmHg 68%
05:00 +8°C° 0 mm 1 mps 545 mmHg 65%
06:00 +10°C° 0 mm 1 mps 546 mmHg 60%
07:00 +11°C° 0 mm 1 mps 547 mmHg 54%
08:00 +12°C° 0 mm 1 mps 548 mmHg 49%
09:00 +14°C° 0 mm 2 mps 549 mmHg 46%
10:00 +15°C° 0 mm 2 mps 549 mmHg 43%
11:00 +17°C° 0 mm 3 mps 549 mmHg 40%
12:00 +17°C° 0 mm 3 mps 549 mmHg 39%
13:00 +17°C° 0 mm 4 mps 548 mmHg 39%
14:00 +17°C° 0 mm 4 mps 548 mmHg 39%
15:00 +16°C° 0 mm 3 mps 547 mmHg 47%
16:00 +13°C° 0 mm 3 mps 547 mmHg 54%
17:00 +12°C° 0 mm 3 mps 546 mmHg 61%
18:00 +12°C° 0 mm 2 mps 546 mmHg 65%
19:00 +10°C° 0 mm 2 mps 546 mmHg 69%
20:00 +10°C° 0 mm 2 mps 546 mmHg 73%
21:00 +9°C° 0 mm 2 mps 546 mmHg 71%
22:00 +9°C° 0 mm 2 mps 546 mmHg 69%
23:00 +10°C° 0 mm 1 mps 546 mmHg 68%

Day after tomorrow, 4 December, Friday

Time Temperature Precipitation Wind Pressure Humidity
00:00 +9°C° 0 mm 1 mps 546 mmHg 68%
01:00 +9°C° 0 mm 1 mps 545 mmHg 68%
02:00 +9°C° 0 mm 1 mps 545 mmHg 68%
03:00 +8°C° 0 mm 1 mps 545 mmHg 69%
04:00 +8°C° 0 mm 1 mps 545 mmHg 69%
05:00 +8°C° 0 mm 1 mps 545 mmHg 69%
06:00 +9°C° 0 mm 1 mps 546 mmHg 63%
07:00 +11°C° 0 mm 1 mps 547 mmHg 58%
08:00 +12°C° 0 mm 1 mps 548 mmHg 52%
09:00 +14°C° 0 mm 2 mps 548 mmHg 47%
10:00 +15°C° 0 mm 2 mps 549 mmHg 42%
11:00 +17°C° 0 mm 2 mps 549 mmHg 37%
12:00 +17°C° 0 mm 2 mps 549 mmHg 38%
13:00 +17°C° 0 mm 3 mps 548 mmHg 40%
14:00 +17°C° 0 mm 3 mps 548 mmHg 42%
15:00 +16°C° 0 mm 3 mps 547 mmHg 49%
16:00 +13°C° 0 mm 3 mps 547 mmHg 56%
17:00 +12°C° 0 mm 3 mps 546 mmHg 63%
18:00 +12°C° 0 mm 2 mps 546 mmHg 66%
19:00 +10°C° 0 mm 2 mps 547 mmHg 69%
20:00 +10°C° 0 mm 2 mps 547 mmHg 72%
21:00 +10°C° 0 mm 1 mps 547 mmHg 70%
22:00 +10°C° 0 mm 1 mps 547 mmHg 69%
23:00 +10°C° 0 mm 1 mps 547 mmHg 67%

5 December, Saturday

Time Temperature Precipitation Wind Pressure Humidity
00:00 +10°C° 0 mm 1 mps 546 mmHg 66%
01:00 +9°C° 0 mm 1 mps 546 mmHg 64%
02:00 +9°C° 0 mm 1 mps 546 mmHg 63%
03:00 +9°C° 0 mm 1 mps 546 mmHg 62%
04:00 +9°C° 0 mm 1 mps 546 mmHg 61%
05:00 +9°C° 0 mm 1 mps 546 mmHg 61%
06:00 +10°C° 0 mm 1 mps 547 mmHg 56%
07:00 +11°C° 0 mm 1 mps 548 mmHg 50%
08:00 +13°C° 0 mm 1 mps 549 mmHg 45%
09:00 +14°C° 0 mm 1 mps 550 mmHg 42%
10:00 +16°C° 0 mm 1 mps 550 mmHg 39%
11:00 +19°C° 0 mm 1 mps 551 mmHg 35%
12:00 +18°C° 0 mm 2 mps 550 mmHg 37%
13:00 +17°C° 0 mm 2 mps 549 mmHg 39%
14:00 +17°C° 0 mm 3 mps 549 mmHg 41%
15:00 +16°C° 0.1 mm 2 mps 548 mmHg 48%
16:00 +15°C° 0.1 mm 2 mps 548 mmHg 55%
17:00 +13°C° 0.1 mm 2 mps 547 mmHg 62%
18:00 +12°C° 0 mm 1 mps 547 mmHg 65%
19:00 +12°C° 0 mm 1 mps 548 mmHg 68%
20:00 +11°C° 0 mm 1 mps 548 mmHg 70%
21:00 +11°C° 0 mm 1 mps 548 mmHg 72%
22:00 +10°C° 0 mm 1 mps 547 mmHg 73%
23:00 +10°C° 0 mm 1 mps 547 mmHg 74%

6 December, Sunday

Time Temperature Precipitation Wind Pressure Humidity
00:00 +9°C° 0 mm 0 mps 547 mmHg 76%
01:00 +8°C° 0 mm 0 mps 546 mmHg 77%
02:00 +8°C° 0 mm 0 mps 546 mmHg 79%
03:00 +8°C° 0 mm 0 mps 546 mmHg 80%
04:00 +8°C° 0 mm 1 mps 546 mmHg 81%
05:00 +8°C° 0 mm 1 mps 546 mmHg 83%
06:00 +9°C° 0 mm 1 mps 546 mmHg 79%
07:00 +10°C° 0 mm 1 mps 547 mmHg 74%
08:00 +11°C° 0 mm 1 mps 548 mmHg 70%
09:00 +12°C° 0 mm 1 mps 549 mmHg 64%
10:00 +14°C° 0 mm 1 mps 549 mmHg 59%
11:00 +15°C° 0 mm 1 mps 550 mmHg 53%
12:00 +14°C° 0.3 mm 2 mps 549 mmHg 58%
13:00 +13°C° 0.3 mm 2 mps 548 mmHg 63%
14:00 +12°C° 0.3 mm 2 mps 547 mmHg 68%
15:00 +10°C° 0.6 mm 2 mps 546 mmHg 72%
16:00 +9°C° 0.6 mm 2 mps 546 mmHg 77%
17:00 +8°C° 0.6 mm 2 mps 545 mmHg 81%
18:00 +9°C° 0.1 mm 1 mps 546 mmHg 81%
19:00 +9°C° 0.1 mm 1 mps 546 mmHg 80%
20:00 +8°C° 0.1 mm 1 mps 546 mmHg 80%
21:00 +8°C° 0 mm 1 mps 546 mmHg 79%
22:00 +9°C° 0 mm 1 mps 546 mmHg 79%
23:00 +9°C° 0 mm 1 mps 546 mmHg 79%

7 December, Monday

Time Temperature Precipitation Wind Pressure Humidity
00:00 +8°C° 0 mm 1 mps 546 mmHg 79%
01:00 +7°C° 0 mm 0 mps 546 mmHg 79%
02:00 +7°C° 0 mm 0 mps 545 mmHg 79%
03:00 +7°C° 0 mm 0 mps 545 mmHg 79%
04:00 +7°C° 0 mm 0 mps 545 mmHg 80%
05:00 +7°C° 0 mm 0 mps 545 mmHg 80%
06:00 +8°C° 0 mm 0 mps 546 mmHg 75%
07:00 +9°C° 0 mm 0 mps 547 mmHg 69%
08:00 +11°C° 0 mm 0 mps 548 mmHg 64%
09:00 +12°C° 0 mm 0 mps 549 mmHg 58%
10:00 +15°C° 0 mm 1 mps 549 mmHg 52%
11:00 +16°C° 0 mm 1 mps 550 mmHg 45%
12:00 +16°C° 0.1 mm 1 mps 549 mmHg 46%
13:00 +16°C° 0.1 mm 1 mps 549 mmHg 46%
14:00 +16°C° 0.1 mm 1 mps 548 mmHg 46%
15:00 +15°C° 0.3 mm 1 mps 548 mmHg 52%
16:00 +14°C° 0.3 mm 1 mps 548 mmHg 57%
17:00 +13°C° 0.3 mm 2 mps 547 mmHg 63%
18:00 +13°C° 0.1 mm 2 mps 548 mmHg 66%
19:00 +12°C° 0.1 mm 1 mps 548 mmHg 68%
20:00 +11°C° 0.1 mm 1 mps 548 mmHg 71%
21:00 +11°C° 0 mm 1 mps 548 mmHg 74%
22:00 +10°C° 0 mm 1 mps 548 mmHg 77%
23:00 +10°C° 0 mm 1 mps 548 mmHg 80%
Show more